When you browse on this site, cookies collect data to enhance your experience and personalize the content and advertising you see.
Visit our Privacy Policy to learn more. By continuing to use the site, you agree to this use of cookies and data.
  • In Spain
  • List of Countries
  • For 7 days
  • Water Temperature
  • Satellite Maps
  • Weather Map
  • Weather Widgets
  • user-avatar
    Login

    Hourly Weather Kalgoorlie

    Today, 21 November, Wednesday

    Time Temperature Precipitation Wind Pressure Humidity
    00:00 +15°C° 0 mm 7 mps 730 mmHg 51%
    01:00 +14°C° 0 mm 6 mps 730 mmHg 55%
    02:00 +14°C° 0 mm 6 mps 729 mmHg 60%
    03:00 +13°C° 0 mm 5 mps 729 mmHg 64%
    04:00 +13°C° 0 mm 5 mps 729 mmHg 68%
    05:00 +12°C° 0 mm 5 mps 730 mmHg 72%
    06:00 +14°C° 0 mm 5 mps 730 mmHg 67%
    07:00 +15°C° 0 mm 5 mps 730 mmHg 62%
    08:00 +16°C° 0 mm 5 mps 730 mmHg 58%
    09:00 +17°C° 0 mm 5 mps 730 mmHg 52%
    10:00 +19°C° 0 mm 4 mps 730 mmHg 47%
    11:00 +20°C° 0 mm 4 mps 730 mmHg 42%
    12:00 +21°C° 0 mm 4 mps 729 mmHg 39%
    13:00 +24°C° 0 mm 3 mps 729 mmHg 36%
    14:00 +24°C° 0 mm 3 mps 728 mmHg 35%
    15:00 +24°C° 0 mm 3 mps 728 mmHg 33%
    16:00 +24°C° 0 mm 2 mps 728 mmHg 32%
    17:00 +25°C° 0 mm 2 mps 728 mmHg 31%
    18:00 +24°C° 0 mm 3 mps 728 mmHg 32%
    19:00 +22°C° 0 mm 4 mps 728 mmHg 34%
    20:00 +22°C° 0 mm 5 mps 728 mmHg 35%
    21:00 +21°C° 0 mm 5 mps 728 mmHg 38%
    22:00 +20°C° 0 mm 6 mps 728 mmHg 40%
    23:00 +18°C° 0 mm 7 mps 728 mmHg 43%

    Tomorrow, 22 November, Thursday

    Time Temperature Precipitation Wind Pressure Humidity
    00:00 +17°C° 0 mm 7 mps 728 mmHg 44%
    01:00 +17°C° 0 mm 7 mps 728 mmHg 45%
    02:00 +16°C° 0 mm 7 mps 728 mmHg 46%
    03:00 +16°C° 0 mm 7 mps 727 mmHg 47%
    04:00 +15°C° 0 mm 7 mps 727 mmHg 48%
    05:00 +15°C° 0 mm 7 mps 727 mmHg 48%
    06:00 +16°C° 0 mm 8 mps 727 mmHg 45%
    07:00 +17°C° 0 mm 8 mps 727 mmHg 42%
    08:00 +20°C° 0 mm 8 mps 727 mmHg 38%
    09:00 +22°C° 0 mm 9 mps 727 mmHg 34%
    10:00 +24°C° 0 mm 9 mps 727 mmHg 30%
    11:00 +27°C° 0 mm 9 mps 726 mmHg 26%
    12:00 +28°C° 0 mm 9 mps 726 mmHg 24%
    13:00 +29°C° 0 mm 9 mps 725 mmHg 21%
    14:00 +32°C° 0 mm 9 mps 724 mmHg 19%
    15:00 +32°C° 0 mm 9 mps 724 mmHg 18%
    16:00 +33°C° 0 mm 8 mps 723 mmHg 18%
    17:00 +33°C° 0 mm 8 mps 722 mmHg 18%
    18:00 +32°C° 0.3 mm 9 mps 721 mmHg 21%
    19:00 +29°C° 0.3 mm 10 mps 721 mmHg 24%
    20:00 +28°C° 0.3 mm 11 mps 720 mmHg 28%
    21:00 +27°C° 0.1 mm 11 mps 720 mmHg 28%
    22:00 +27°C° 0.1 mm 12 mps 721 mmHg 28%
    23:00 +26°C° 0.1 mm 12 mps 721 mmHg 28%

    Day after tomorrow, 23 November, Friday

    Time Temperature Precipitation Wind Pressure Humidity
    00:00 +26°C° 0 mm 11 mps 720 mmHg 28%
    01:00 +24°C° 0 mm 9 mps 720 mmHg 27%
    02:00 +24°C° 0 mm 7 mps 720 mmHg 27%
    03:00 +23°C° 0 mm 7 mps 720 mmHg 28%
    04:00 +23°C° 0 mm 6 mps 720 mmHg 29%
    05:00 +22°C° 0 mm 5 mps 720 mmHg 30%
    06:00 +23°C° 0 mm 6 mps 720 mmHg 31%
    07:00 +24°C° 0 mm 7 mps 720 mmHg 31%
    08:00 +26°C° 0 mm 9 mps 720 mmHg 32%
    09:00 +27°C° 0 mm 9 mps 720 mmHg 31%
    10:00 +28°C° 0 mm 10 mps 720 mmHg 29%
    11:00 +29°C° 0 mm 10 mps 720 mmHg 28%
    12:00 +29°C° 0 mm 11 mps 720 mmHg 27%
    13:00 +29°C° 0 mm 12 mps 720 mmHg 26%
    14:00 +31°C° 0 mm 12 mps 720 mmHg 26%
    15:00 +29°C° 0 mm 12 mps 721 mmHg 28%
    16:00 +28°C° 0 mm 12 mps 721 mmHg 31%
    17:00 +27°C° 0 mm 12 mps 721 mmHg 33%
    18:00 +24°C° 0 mm 11 mps 723 mmHg 39%
    19:00 +23°C° 0 mm 11 mps 724 mmHg 44%
    20:00 +21°C° 0 mm 10 mps 725 mmHg 50%
    21:00 +19°C° 0 mm 9 mps 725 mmHg 54%
    22:00 +18°C° 0 mm 9 mps 726 mmHg 58%
    23:00 +17°C° 0 mm 8 mps 726 mmHg 62%

    24 November, Saturday

    Time Temperature Precipitation Wind Pressure Humidity
    00:00 +17°C° 0 mm 7 mps 726 mmHg 65%
    01:00 +16°C° 0 mm 7 mps 726 mmHg 68%
    02:00 +15°C° 0 mm 6 mps 726 mmHg 71%
    03:00 +15°C° 0 mm 6 mps 726 mmHg 72%
    04:00 +15°C° 0 mm 5 mps 726 mmHg 74%
    05:00 +14°C° 0 mm 5 mps 727 mmHg 75%
    06:00 +16°C° 0 mm 5 mps 727 mmHg 68%
    07:00 +17°C° 0 mm 5 mps 728 mmHg 60%
    08:00 +19°C° 0 mm 5 mps 728 mmHg 52%
    09:00 +21°C° 0 mm 5 mps 728 mmHg 45%
    10:00 +22°C° 0 mm 4 mps 728 mmHg 37%
    11:00 +25°C° 0 mm 4 mps 728 mmHg 30%
    12:00 +26°C° 0 mm 4 mps 728 mmHg 26%
    13:00 +27°C° 0 mm 4 mps 727 mmHg 23%
    14:00 +28°C° 0 mm 4 mps 727 mmHg 20%
    15:00 +29°C° 0 mm 3 mps 727 mmHg 19%
    16:00 +29°C° 0 mm 3 mps 727 mmHg 18%
    17:00 +29°C° 0 mm 3 mps 727 mmHg 17%
    18:00 +28°C° 0 mm 3 mps 727 mmHg 18%
    19:00 +27°C° 0 mm 2 mps 727 mmHg 20%
    20:00 +26°C° 0 mm 1 mps 727 mmHg 21%
    21:00 +26°C° 0 mm 1 mps 727 mmHg 22%
    22:00 +25°C° 0 mm 2 mps 727 mmHg 23%
    23:00 +24°C° 0 mm 2 mps 727 mmHg 24%

    25 November, Sunday

    Time Temperature Precipitation Wind Pressure Humidity
    00:00 +22°C° 0 mm 3 mps 726 mmHg 29%
    01:00 +21°C° 0 mm 4 mps 726 mmHg 34%
    02:00 +21°C° 0 mm 5 mps 725 mmHg 39%
    03:00 +20°C° 0 mm 5 mps 725 mmHg 44%
    04:00 +19°C° 0 mm 5 mps 725 mmHg 49%
    05:00 +19°C° 0 mm 5 mps 725 mmHg 54%
    06:00 +21°C° 0 mm 5 mps 726 mmHg 47%
    07:00 +23°C° 0 mm 5 mps 726 mmHg 39%
    08:00 +26°C° 0 mm 5 mps 727 mmHg 32%
    09:00 +27°C° 0 mm 6 mps 726 mmHg 27%
    10:00 +29°C° 0 mm 6 mps 726 mmHg 22%
    11:00 +32°C° 0 mm 6 mps 726 mmHg 18%
    12:00 +33°C° 0 mm 7 mps 725 mmHg 17%
    13:00 +33°C° 0 mm 7 mps 724 mmHg 16%
    14:00 +34°C° 0 mm 8 mps 723 mmHg 15%
    15:00 +33°C° 0 mm 8 mps 723 mmHg 14%
    16:00 +33°C° 0 mm 8 mps 723 mmHg 13%
    17:00 +33°C° 0 mm 8 mps 723 mmHg 13%
    18:00 +31°C° 0 mm 8 mps 724 mmHg 14%
    19:00 +28°C° 0 mm 8 mps 725 mmHg 16%
    20:00 +26°C° 0 mm 8 mps 725 mmHg 18%
    21:00 +22°C° 0 mm 9 mps 726 mmHg 33%
    22:00 +18°C° 0 mm 9 mps 726 mmHg 49%
    23:00 +15°C° 0 mm 9 mps 726 mmHg 64%

    26 November, Monday

    Time Temperature Precipitation Wind Pressure Humidity
    00:00 +13°C° 0 mm 9 mps 726 mmHg 66%
    01:00 +13°C° 0 mm 8 mps 727 mmHg 67%
    02:00 +12°C° 0 mm 8 mps 727 mmHg 68%
    03:00 +11°C° 0 mm 8 mps 727 mmHg 68%
    04:00 +11°C° 0 mm 7 mps 728 mmHg 68%
    05:00 +10°C° 0 mm 7 mps 728 mmHg 67%
    06:00 +11°C° 0 mm 6 mps 729 mmHg 62%
    07:00 +13°C° 0 mm 6 mps 729 mmHg 57%
    08:00 +14°C° 0 mm 6 mps 730 mmHg 53%
    09:00 +16°C° 0 mm 5 mps 730 mmHg 47%
    10:00 +17°C° 0 mm 5 mps 729 mmHg 42%
    11:00 +20°C° 0 mm 4 mps 729 mmHg 36%
    12:00 +21°C° 0 mm 4 mps 729 mmHg 31%
    13:00 +23°C° 0 mm 4 mps 728 mmHg 26%
    14:00 +25°C° 0 mm 4 mps 728 mmHg 21%
    15:00 +25°C° 0 mm 4 mps 728 mmHg 20%
    16:00 +26°C° 0 mm 4 mps 728 mmHg 18%
    17:00 +26°C° 0 mm 4 mps 728 mmHg 16%
    18:00 +25°C° 0 mm 5 mps 729 mmHg 20%
    19:00 +22°C° 0 mm 6 mps 729 mmHg 23%
    20:00 +21°C° 0 mm 6 mps 730 mmHg 26%
    21:00 +18°C° 0 mm 7 mps 730 mmHg 32%
    22:00 +17°C° 0 mm 8 mps 730 mmHg 38%
    23:00 +15°C° 0 mm 8 mps 730 mmHg 44%
    Show more